Weather History for Jesup, GA

Change the Weather History Date:

Saturday, August 16, 2014

  Actual Average (KLHW) Record (KLHW)
Temperature  
Mean Temperature 86 °F -  
Max Temperature 95 °F 91 °F 99 °F (1968)
Min Temperature 77 °F 70 °F 64 °F (1967)
Cooling Degree Days 21    
Growing Degree Days 36 (Base 50)    
Moisture  
Dew Point 74 °F    
Average Humidity 74    
Maximum Humidity 100    
Minimum Humidity 39    
Precipitation  
Precipitation 0.00 in - - ()
Sea Level Pressure  
Sea Level Pressure 30.01 in    
Wind  
Wind Speed 2 mph (West)    
Max Wind Speed 12 mph    
Max Gust Speed 16 mph    
Visibility 8 miles    
Events Fog    
Averages and records for this station are not official NWS values.
T = Trace of Precipitation, MM = Missing Value Source: NWS Daily Summary

Daily Weather History Graph

Daily Weather History Graph

Search for Another Location

Airport:

Trip Planner

Search our weather history database for the weather conditions in past years. The results will help you decide how hot, cold, wet, or windy it might be!

Date:

Astronomy

Aug. 16, 2014 Rise Set
Actual Time 6:53 AM EDT 8:09 PM EDT
Civil Twilight 6:27 AM EDT 8:35 PM EDT
Nautical Twilight 5:57 AM EDT 9:05 PM EDT
Astronomical Twilight 5:25 AM EDT 9:37 PM EDT
Moon No Moon Rise 1:10 PM EDT (8/16)
Length of Visible Light 14h 07m
Length of Day
13h 16m
Waning Gibbous, 59% of the Moon is Illuminated
Aug 16
Waning Gibbous
Aug 17
Last Quarter
Aug 25
New
Sep 2
First Quarter
Sep 8
Full

Hourly Weather History & Observations

Time (EDT) Temp. Heat Index Dew Point Humidity Pressure Visibility Wind Dir Wind Speed Gust Speed Precip Events Conditions
12:15 AM 77.0 °F - 75.2 °F 94% 29.98 in 10.0 mi Calm Calm - N/A   Unknown
12:35 AM 77.0 °F - 73.4 °F 89% 29.99 in 7.0 mi Calm Calm - N/A   Unknown
12:55 AM 77.0 °F - 75.2 °F 94% 29.99 in 7.0 mi Calm Calm - N/A   Unknown
1:15 AM 77.0 °F - 75.2 °F 94% 29.98 in 7.0 mi Calm Calm - N/A   Unknown
1:35 AM 77.0 °F - 75.2 °F 94% 29.98 in 7.0 mi Calm Calm - N/A   Unknown
1:55 AM 77.0 °F - 75.2 °F 94% 29.98 in 5.0 mi Calm Calm - N/A   Mist
2:15 AM 77.0 °F - 75.2 °F 94% 29.97 in 5.0 mi SSW 3.5 mph - N/A   Mist
2:35 AM 77.0 °F - 77.0 °F 100% 29.98 in 2.5 mi Calm Calm - N/A   Mist
2:55 AM 77.0 °F - 77.0 °F 100% 29.98 in 5.0 mi Calm Calm - N/A   Mist
3:15 AM 78.8 °F - 77.0 °F 94% 29.98 in 5.0 mi Calm Calm - N/A   Mist
3:35 AM 78.8 °F - 77.0 °F 94% 29.98 in 7.0 mi Calm Calm - N/A   Unknown
3:55 AM 78.8 °F - 77.0 °F 94% 29.97 in 7.0 mi Calm Calm - N/A   Unknown
4:15 AM 78.8 °F - 77.0 °F 94% 29.98 in 7.0 mi Calm Calm - N/A   Unknown
4:35 AM 78.8 °F - 77.0 °F 94% 29.98 in 7.0 mi SW 3.5 mph - N/A   Unknown
4:55 AM 78.8 °F - 77.0 °F 94% 29.98 in 7.0 mi SW 3.5 mph - N/A   Unknown
5:15 AM 78.8 °F - 77.0 °F 94% 29.98 in 5.0 mi Calm Calm - N/A   Mist
5:35 AM 78.8 °F - 77.0 °F 94% 29.99 in 5.0 mi Calm Calm - N/A   Mist
6:15 AM 77.0 °F - 77.0 °F 100% 30.00 in 4.0 mi Calm Calm - N/A   Mist
6:35 AM 77.0 °F - 75.2 °F 94% 30.00 in 1.8 mi Calm Calm - N/A   Mist
6:55 AM 77.0 °F - 75.2 °F 94% 30.00 in 0.5 mi Calm Calm - N/A Fog Fog
7:15 AM 77.0 °F - 73.4 °F 89% 30.01 in 0.2 mi Calm Calm - N/A Fog Fog
7:35 AM 77.0 °F - 77.0 °F 100% 30.01 in 0.2 mi Calm Calm - N/A Fog Fog
7:55 AM 78.8 °F - 77.0 °F 94% 30.02 in 0.2 mi Calm Calm - N/A Fog Fog
8:15 AM 78.8 °F - 77.0 °F 94% 30.02 in 2.5 mi West 3.5 mph - N/A   Mist
8:35 AM 78.8 °F - 77.0 °F 94% 30.03 in 5.0 mi Calm Calm - N/A   Mist
8:55 AM 80.6 °F 87.1 °F 77.0 °F 89% 30.04 in 7.0 mi West 5.8 mph - N/A   Unknown
9:15 AM 80.6 °F 87.1 °F 77.0 °F 89% 30.04 in 10.0 mi WNW 4.6 mph - N/A   Unknown
9:35 AM 82.4 °F 90.9 °F 77.0 °F 84% 30.05 in 10.0 mi WSW 3.5 mph - N/A   Unknown
9:55 AM 84.2 °F 94.1 °F 77.0 °F 79% 30.05 in 10.0 mi Calm Calm - N/A   Unknown
10:15 AM 86.0 °F 96.9 °F 77.0 °F 74% 30.05 in 10.0 mi Calm Calm - N/A   Unknown
10:35 AM 86.0 °F 96.9 °F 77.0 °F 74% 30.05 in 10.0 mi Calm Calm - N/A   Unknown
10:55 AM 87.8 °F 99.7 °F 77.0 °F 70% 30.06 in 10.0 mi SW 3.5 mph - N/A   Unknown
11:15 AM 87.8 °F 97.6 °F 75.2 °F 66% 30.06 in 10.0 mi NW 3.5 mph - N/A   Unknown
11:35 AM 87.8 °F 97.6 °F 75.2 °F 66% 30.05 in 10.0 mi Calm Calm - N/A   Unknown
11:55 AM 89.6 °F 98.2 °F 73.4 °F 59% 30.05 in 10.0 mi Calm Calm - N/A   Unknown
12:15 PM 91.4 °F 100.1 °F 73.4 °F 55% 30.05 in 10.0 mi NNW 8.1 mph - N/A   Unknown
12:35 PM 91.4 °F 98.4 °F 71.6 °F 52% 30.04 in 10.0 mi NW 5.8 mph - N/A   Unknown
12:55 PM 91.4 °F 98.4 °F 71.6 °F 52% 30.04 in 10.0 mi West 3.5 mph - N/A   Unknown
1:15 PM 93.2 °F 98.8 °F 69.8 °F 46% 30.03 in 10.0 mi WNW 8.1 mph - N/A   Unknown
1:35 PM 95.0 °F 101.3 °F 69.8 °F 44% 30.03 in 10.0 mi West 8.1 mph - N/A   Unknown
1:55 PM 95.0 °F 101.3 °F 69.8 °F 44% 30.03 in 10.0 mi NW 6.9 mph - N/A   Unknown
2:15 PM 95.0 °F 101.3 °F 69.8 °F 44% 30.02 in 10.0 mi West 5.8 mph - N/A   Unknown
2:35 PM 95.0 °F 99.5 °F 68.0 °F 41% 30.02 in 10.0 mi WNW 8.1 mph - N/A   Unknown
2:55 PM 95.0 °F 99.5 °F 68.0 °F 41% 30.01 in 10.0 mi WNW 4.6 mph 9.2 mph N/A   Unknown
3:15 PM 95.0 °F 99.5 °F 68.0 °F 41% 30.00 in 10.0 mi West 11.5 mph 16.1 mph N/A   Unknown
3:35 PM 95.0 °F 98.5 °F 66.2 °F 39% 30.00 in 10.0 mi WNW 9.2 mph 16.1 mph N/A   Unknown
3:55 PM 95.0 °F 98.5 °F 66.2 °F 39% 30.00 in 10.0 mi West 9.2 mph - N/A   Unknown
4:15 PM 95.0 °F 99.5 °F 68.0 °F 41% 30.00 in 10.0 mi WNW 4.6 mph - N/A   Unknown
4:35 PM 95.0 °F 98.5 °F 66.2 °F 39% 29.99 in 10.0 mi West 4.6 mph - N/A   Unknown
4:55 PM 95.0 °F 99.5 °F 68.0 °F 41% 30.00 in 10.0 mi NW 4.6 mph - N/A   Unknown
5:15 PM 95.0 °F 98.5 °F 66.2 °F 39% 30.00 in 10.0 mi NW 8.1 mph - N/A   Unknown
5:35 PM 95.0 °F 99.5 °F 68.0 °F 41% 30.00 in 10.0 mi West 4.6 mph - N/A   Unknown
5:55 PM 95.0 °F 99.5 °F 68.0 °F 41% 30.00 in 10.0 mi WNW 4.6 mph - N/A   Unknown
6:15 PM 95.0 °F 99.5 °F 68.0 °F 41% 30.00 in 10.0 mi Calm Calm - N/A   Unknown
6:35 PM 95.0 °F 99.5 °F 68.0 °F 41% 30.01 in 10.0 mi West 3.5 mph - N/A   Unknown
6:55 PM 93.2 °F 98.8 °F 69.8 °F 46% 30.00 in 10.0 mi Calm Calm - N/A   Unknown
7:15 PM 91.4 °F 98.4 °F 71.6 °F 52% 30.00 in 10.0 mi Calm Calm - N/A   Unknown
7:35 PM 87.8 °F 95.6 °F 73.4 °F 62% 30.00 in 10.0 mi Calm Calm - N/A   Unknown
7:55 PM 87.8 °F 95.6 °F 73.4 °F 62% 30.00 in 10.0 mi Calm Calm - N/A   Unknown
8:15 PM 82.4 °F 90.9 °F 77.0 °F 84% 30.00 in 10.0 mi Calm Calm - N/A   Unknown
8:35 PM 82.4 °F 90.9 °F 77.0 °F 84% 30.00 in 10.0 mi Calm Calm - N/A   Unknown
8:55 PM 82.4 °F 90.9 °F 77.0 °F 84% 30.01 in 10.0 mi Calm Calm - N/A   Unknown
9:15 PM 80.6 °F 87.1 °F 77.0 °F 89% 30.02 in 10.0 mi Calm Calm - N/A   Unknown
9:35 PM 80.6 °F 86.2 °F 75.2 °F 84% 30.02 in 10.0 mi Calm Calm - N/A   Unknown
9:55 PM 78.8 °F - 75.2 °F 89% 30.03 in 10.0 mi Calm Calm - N/A   Unknown
10:15 PM 82.4 °F 89.5 °F 75.2 °F 79% 30.03 in 10.0 mi South 4.6 mph - N/A   Unknown
10:35 PM 82.4 °F 90.9 °F 77.0 °F 84% 30.04 in 10.0 mi South 5.8 mph - N/A   Unknown
10:55 PM 82.4 °F 90.9 °F 77.0 °F 84% 30.04 in 10.0 mi Calm Calm - N/A   Unknown
11:15 PM 80.6 °F 87.1 °F 77.0 °F 89% 30.04 in 10.0 mi Calm Calm - N/A   Unknown
11:35 PM 80.6 °F 87.1 °F 77.0 °F 89% 30.04 in 10.0 mi Calm Calm - N/A   Unknown
11:55 PM 80.6 °F 87.1 °F 77.0 °F 89% 30.03 in 10.0 mi Calm Calm - N/A   Unknown